Regional Weather Roundup
Issued by NWS Albany, NY

Home | Current Version | Previous Version | Graphics & Text | Print | Product List | Glossary On
Versions: 1 2 3 4 5 6 7 8 9 10 11 12 13 14 15 16 17 18 19 20 21 22 23 24 25 26 27
000
ASUS41 KALY 190010
RWRALY

NEW YORK STATE HOURLY WEATHER ROUNDUP
NATIONAL WEATHER SERVICE ALBANY NY
800 PM EDT FRI AUG 18 2017

NOTE: "FAIR" INDICATES FEW OR NO CLOUDS BELOW 12,000 FEET WITH NO
SIGNIFICANT WEATHER AND/OR NO OBSTRUCTIONS TO VISIBILITY.

NYZ032-033-038>043-046>054-057>066-NYZ062>081-082-084-190100-
EAST


CITY           SKY/WX    TMP DP  RH WIND       PRES   REMARKS
ALBANY         NOT AVBL
GLENS FALLS    CLOUDY    75  71  87 S3        29.75F
POUGHKEEPSIE   CLOUDY    75  72  90 SE6       29.76S
NEWBURGH       MOCLDY    72  72 100 CALM      29.80S
MONTGOMERY     CLOUDY    73  71  93 CALM      29.79S
WHITE PLAINS   FOG       77  76  96 S7        29.81R VSB 1
ISLIP          TSTM      78  77  96 S17G24    29.81S
NEW YORK CITY  TSTM      79  73  82 W6        29.79S
CENTRAL PARK   RAIN      74  72  93 W6        29.82R FOG
$$

NYZ005>009-017-018-044>046-055-056-190100-
CENTRAL


CITY           SKY/WX    TMP DP  RH WIND       PRES   REMARKS
FULTON         CLEAR     76  62  62 W9        29.73R
SYRACUSE       MOCLDY    75  70  84 SW6       29.72R
ROME           LGT RAIN  71  69  93 NE9       29.73R FOG
ELMIRA         CLEAR     77  69  76 W3        29.76R
BINGHAMTON     CLEAR     73  68  84 SW7       29.78F
MONTICELLO     CLOUDY    72  70  93 S6        29.84S
$$

NYZ026>034-041>043-087-190100-
NORTH


CITY           SKY/WX    TMP DP  RH WIND       PRES   REMARKS
WATERTOWN      CLEAR     74  69  85 SW8       29.70S
FORT DRUM      NOT AVBL
OGDENSBURG     FAIR      78  65  63 SW7       29.68R
MASSENA        PTCLDY    77  65  66 S3        29.68S
SARANAC LAKE   PTCLDY    71  65  81 CALM      29.75S
PLATTSBURGH    CLEAR     74  71  91 SE3       29.70R
$$

NYZ001>004-010>016-019>021-085-190100-
WEST


CITY           SKY/WX    TMP DP  RH WIND       PRES   REMARKS
NIAGARA FALLS  CLOUDY    76  65  68 SW10      29.76R
BUFFALO        CLOUDY    74  67  78 SW15G25   29.77R
DUNKIRK        CLOUDY    73  67  81 SW14      29.80R
JAMESTOWN      MOCLDY    70  60  70 W8G16     29.86R
WELLSVILLE     MOCLDY    73  62  68 N13       29.87R
ROCHESTER      MOCLDY    76  64  66 W14       29.76R
PENN YAN       PTCLDY    77  61  57 SW7       29.78R
$$

             KEY
       WCI = WIND CHILL INDEX
       VSB = VISIBILITY
       HX  = HEAT INDEX
$$




USA.gov is the U.S. government's official web portal to all federal, state and local government web resources and services.